Volver al catálogo

STARLINK-5595

ActivoComunicacionesVLEO
NORAD 55765·PAYLOAD·🇺🇸 United States

Lanzado Mar 3, 2023 desde Vandenberg Space Force Base

Loading…

Próximos Pases (próximas 24 horas)

TLE

ActualizadoSource: CelesTrak SupGP

Época: Sep 15, 2026, 02:11 UTC

1 55765C 23028AA  26258.09145833  .00005729  00000+0  48000-3 0  2584
2 55765  69.9996 107.0672 0002641 274.2124 305.6496 14.98334145    12

Sigue STARLINK-5595 en tiempo real con AllMySat

Download on the App Store